Tracking 20241 objects as of 26-Jan-2020
HD Live streaming from Space Station
objects crossing your sky now

FENGYUN 1C DEB

Track FENGYUN 1C DEB now!
10-day predictions


NORAD ID: 36672
Int'l Code: 1999-025DYS
Perigee: 566.3 km
Apogee: 620.0 km
Inclination: 99.0 °
Period: 96.4 minutes
Semi major axis: 6964 km
RCS: 0.0094 m2 (small)
Launch date: May 10, 1999
Source: People's Republic of China (PRC)
Launch site: Taiyaun Space Center, China (TSC)

Note: This is SATELLITE DEBRIS
aabbcc
Your satellite tracking list
Your tracking list is empty




NASA's NSSDC Master Catalog

Two Line Element Set (TLE):
1 36672U 99025DYS 20025.18204858  .00004387  00000-0  41434-3 0  9995
2 36672  98.9610 108.7126 0038547 273.3640  86.3167 14.93826414587896
Source of the keplerian elements: AFSPC